Powrót do katalogu

STARLINK-35366

AktywnyŁącznośćVLEO
NORAD 66512·PAYLOAD·🇺🇸 United States

Wystrzelony Nov 15, 2025 z Cape Canaveral Space Force Station

Loading…

Następne Przeloty (najbliższe 24 godziny)

TLE

ŚwieżeSource: CelesTrak SupGP

Epoka: Sep 14, 2026, 22:54 UTC

1 66512C 25263AD  26257.95465278 -.00014535  00000+0 -52639-3 0  2570
2 66512  43.0040   1.8772 0001982 271.1194  96.8389 15.27589709    10

Śledź STARLINK-35366 w czasie rzeczywistym z AllMySat

Download on the App Store